Theta_e
312 309 305 305 307 309 311 313 313 314 319 316 316 326 332 338 343 340 347 355 357 360 359 361 361 361 361 362 362 363 363 362
302 304 310 309 311 311 311 313 313 315 315 319 326 329 339 345 344 339 345 352 360 359 359 360 361 360 360 361 362 362 362 362
301 301 306 311 312 311 310 311 312 316 315 317 326 335 343 344 344 338 342 349 362 359 359 361 361 360 359 359 359 360 361 361
301 302 304 308 311 313 313 313 314 315 317 319 327 333 339 343 343 340 340 348 359 360 359 360 360 360 359 358 358 358 358 358
305 304 304 306 312 310 314 314 314 319 315 321 323 332 340 343 341 339 341 346 356 359 361 360 360 359 358 358 358 358 357 357
306 304 305 310 311 312 313 314 320 321 314 316 322 327 334 342 339 337 341 344 351 354 355 357 358 359 358 358 358 357 358 358
305 305 307 312 309 314 318 316 318 319 320 322 324 324 327 334 337 336 338 343 348 348 350 352 351 356 358 358 358 358 358 358
310 311 310 312 311 313 312 313 315 319 322 322 322 322 323 327 335 335 336 339 344 347 348 349 345 353 357 355 356 356 355 356
309 312 314 312 312 313 311 310 314 317 317 318 320 321 321 325 329 337 336 338 343 350 352 351 347 349 351 350 351 352 355 357
309 312 311 309 313 310 311 312 314 319 318 317 318 318 319 322 328 329 337 337 340 347 353 355 349 348 348 347 348 349 352 358
307 307 307 309 308 308 309 313 310 314 315 315 316 317 320 323 327 329 331 338 341 345 351 354 353 348 348 347 346 348 350 355
305 305 306 304 305 307 308 309 308 314 317 317 315 316 317 321 326 332 332 333 337 344 348 351 351 354 352 349 347 347 345 347
303 304 303 305 301 302 308 307 307 307 310 315 316 321 317 317 320 323 327 331 332 344 349 350 350 351 351 346 345 344 342 349
301 300 302 301 297 304 307 306 305 305 305 309 310 316 316 316 318 322 324 331 332 327 337 350 350 349 346 345 344 344 343 343
296 301 300 300 298 304 306 306 305 306 305 306 309 312 316 315 317 319 323 329 324 336 332 341 349 349 351 353 346 343 343 341
294 299 299 298 298 303 305 305 305 306 306 305 307 310 313 314 315 318 322 326 329 329 332 339 345 352 347 346 345 345 342 343
296 299 297 297 298 301 304 304 304 305 305 307 307 310 312 313 315 317 326 326 328 327 331 330 331 335 340 343 344 343 346 348
297 298 297 297 296 300 302 303 304 305 306 306 307 309 309 311 315 319 320 323 326 327 329 329 332 341 335 341 341 347 348 350
293 296 298 296 295 298 301 303 304 305 306 307 307 306 307 310 315 318 318 320 322 324 327 329 331 330 337 341 343 343 344 347
293 293 289 296 287 295 299 300 301 303 304 306 306 306 309 312 313 315 317 319 321 323 325 325 329 330 331 326 333 334 342 347
Wind_Speed
6 13 18 10 5 7 4 7 6 7 8 5 5 12 15 12 4 16 19 20 21 22 20 16 13 15 16 18 19 18 18 18
9 12 18 12 9 1 8 7 3 6 9 3 6 17 18 17 10 16 21 22 23 25 23 21 17 15 15 16 18 18 18 18
11 16 8 16 13 8 9 7 8 7 9 8 14 18 20 14 9 19 21 21 22 23 22 20 18 17 16 15 15 16 17 17
13 16 10 13 12 18 19 10 9 6 11 3 15 20 20 14 7 16 20 19 19 20 20 18 16 16 14 14 13 13 14 15
18 14 14 15 12 18 18 15 11 10 13 5 15 17 15 10 4 13 18 16 17 20 19 18 15 11 12 12 11 10 10 10
18 14 20 11 10 17 18 18 3 7 7 12 16 15 12 7 4 10 14 16 17 18 19 18 16 13 11 9 9 9 9 9
21 19 15 9 12 14 9 19 17 7 11 12 17 17 12 11 3 9 12 14 15 18 18 17 17 15 11 11 10 8 8 8
19 16 15 11 10 2 6 13 18 18 15 9 18 15 13 9 9 11 11 14 13 15 16 16 13 14 15 14 13 13 13 13
17 12 15 14 14 7 10 17 15 18 11 16 17 14 12 8 9 7 12 11 12 11 11 14 13 10 8 9 10 10 15 12
14 15 10 16 14 12 14 15 14 14 14 18 14 15 14 11 3 5 6 11 13 12 9 11 9 9 9 9 9 9 11 13
13 12 16 16 17 18 17 13 8 7 15 12 12 12 14 8 4 3 3 1 13 14 14 12 12 9 9 9 10 10 9 12
15 16 16 18 20 21 18 5 11 17 26 21 12 10 12 7 5 2 5 5 6 13 12 14 12 12 9 9 10 10 10 10
16 17 18 16 21 25 19 5 15 16 18 15 17 20 12 7 4 3 2 7 4 7 11 11 13 12 9 11 12 10 11 11
10 4 12 11 20 2 5 6 8 5 7 10 9 14 8 5 2 4 2 5 3 3 4 7 10 10 10 9 11 10 10 10
7 5 6 11 13 7 7 10 10 9 7 9 7 7 7 3 3 5 8 5 7 5 6 3 2 5 9 10 9 10 12 11
11 5 8 15 17 16 14 16 16 14 12 10 9 8 6 3 1 4 6 8 6 5 0 7 2 4 4 8 8 10 11 11
10 7 12 16 17 18 18 18 20 18 16 15 10 9 6 3 1 4 4 7 8 8 10 4 3 6 5 7 8 9 10 12
9 10 11 16 20 20 20 20 18 16 17 16 13 12 5 4 3 5 6 7 9 9 8 7 2 4 4 7 5 6 8 10
13 12 16 19 21 20 9 10 11 13 9 12 7 4 2 3 5 8 8 9 7 7 9 9 10 6 2 6 8 12 6 8
12 14 13 7 10 11 11 12 5 5 6 6 4 3 1 2 4 8 8 8 9 8 7 5 6 7 6 6 10 11 8 8
Wind_Direction
238 208 249 264 229 290 59 325 315 302 326 322 345 359 334 332 283 174 166 169 166 169 164 173 184 171 170 168 166 165 163 162
245 236 230 261 242 354 268 298 295 302 301 310 51 344 335 310 260 196 174 173 155 170 169 172 181 183 178 174 169 171 168 165
228 240 207 227 241 250 258 302 299 339 333 317 12 357 349 322 227 195 183 175 163 173 170 173 179 184 183 180 180 177 170 169
237 229 213 231 226 229 264 279 304 289 319 344 11 3 354 335 232 200 180 175 164 172 173 172 183 185 187 183 186 184 178 174
251 238 235 230 216 232 235 256 267 348 308 333 7 6 359 345 260 203 169 180 167 179 177 167 175 190 195 191 184 182 182 181
243 238 245 226 249 227 242 246 263 263 310 327 347 348 339 12 259 196 178 184 175 183 184 184 181 179 192 201 189 180 182 178
239 228 244 239 226 228 241 239 248 271 294 320 325 324 339 358 199 209 190 191 189 183 186 190 188 182 186 191 198 187 185 184
249 252 251 232 217 225 230 215 240 261 278 315 325 324 331 359 348 198 204 198 202 191 189 191 192 189 201 201 208 208 205 200
250 270 260 259 220 220 244 246 248 235 304 307 320 318 325 341 39 293 209 197 218 207 196 203 194 192 193 207 205 209 215 212
268 248 247 248 251 239 244 263 347 246 295 294 304 315 313 328 34 7 197 196 201 208 205 212 203 198 203 206 207 211 207 208
253 258 256 263 250 253 256 263 310 246 270 278 311 307 310 321 317 88 42 172 209 202 200 191 209 212 213 216 211 218 216 205
254 254 253 256 261 255 247 230 236 243 245 258 276 311 313 309 311 290 56 52 325 207 200 203 199 204 203 217 223 218 223 217
243 247 249 251 258 251 253 232 245 253 284 280 282 271 268 291 338 2 86 43 42 296 218 208 218 220 223 213 211 217 223 217
219 261 234 238 258 179 124 228 239 267 302 264 275 256 271 265 89 14 13 130 22 31 310 225 213 226 238 237 225 224 224 222
254 203 277 231 270 205 213 260 262 260 272 281 253 224 234 243 38 3 355 49 29 341 359 40 248 247 238 236 236 233 217 225
257 221 257 270 258 256 254 256 259 261 259 259 266 268 221 216 8 32 7 11 20 223 32 358 25 244 263 269 250 244 239 228
274 278 281 276 275 274 269 263 260 251 244 249 235 244 216 208 332 6 16 11 0 20 336 287 284 281 242 248 233 251 248 222
280 262 280 282 277 280 269 263 258 263 251 235 233 200 214 292 344 5 8 13 12 353 347 322 254 210 289 300 292 251 257 252
291 304 276 268 274 252 244 250 247 256 259 238 214 237 176 304 347 353 358 354 351 345 337 331 324 314 287 276 276 264 264 264
280 282 285 324 289 283 265 246 246 165 173 192 194 165 241 323 348 339 332 332 322 322 322 311 315 306 301 269 275 260 282 258